Tracking 35275 objects as of 8-Sep-2026
HD Live streaming from Space Station
objects crossing your sky now

DELTA 1 R/B

Track DELTA 1 R/B now!
10-day predictions


NORAD ID: 4354
Int'l Code: 1970-021B
Launch date: March 20, 1970
Source: United States (US)
Launch site: AIR FORCE EASTERN TEST RANGE (AFETR)

Note: This is a ROCKET BODY
Your satellite tracking list
Your tracking list is empty




NASA's NSSDC Master Catalog

Two Line Element Set (TLE):
1 04354U 70021B   26250.12516818  .00004865  00000-0  98208-3 0  9996
2 04354  25.2425 257.7738 6295882 217.0903  75.7691  3.60924645381511
Source of the keplerian elements: AFSPC